Tracking 30995 objects as of 5-Jul-2025
HD Live streaming from Space Station
objects crossing your sky now

METEOR 2-1

Track METEOR 2-1 now!
10-day predictions
METEOR 2-1 is classified as:


NORAD ID: 8026
Int'l Code: 1975-064A
Perigee: 847.3 km
Apogee: 880.7 km
Inclination: 81.3 °
Period: 102.1 minutes
Semi major axis: 7234 km
RCS: 5.6919 m2 (large)
Launch date: July 11, 1975
Source: Commonwealth of Independent States (former USSR) (CIS)
Launch site: PLESETSK MISSILE AND SPACE COMPLEX (PKMTR)
Your satellite tracking list
Your tracking list is empty




NASA's NSSDC Master Catalog

Two Line Element Set (TLE):
1 08026U 75064A   25186.59858209  .00000168  00000-0  86652-4 0  9992
2 08026  81.2792 359.6789 0023053 121.8680 238.4739 14.10735796570475
Source of the keplerian elements: AFSPC